User: anonymous   Login
Location: Harbor Island
(32.3990°N, 80.4435°W)
Time: 00:47:04
(UTC-04:00)
Language:

Cosmos 1455 - Orbit

View from above orbital plane
View from above orbital plane
View from above satellite
View from above satellite

Ground track
Ground track

The orbit data is extracted from the following two-line orbital elements,

1 14032U 83037A   16125.09582817  .00002120  00000-0  10809-3 0  9992
2 14032  82.5149 130.9475 0016169 258.6864 101.2552 15.16126198799373
Epoch (UTC): 04 May 2016 02:17:59
Eccentricity: 0.0016169
inclination: 82.5149°
perigee height: 506 km
apogee height: 529 km
right ascension of ascending node: 130.9475°
argument of perigee: 258.6864°
revolutions per day: 15.16126198
mean anomaly at epoch: 101.2552°
orbit number at epoch: 79937

The dashed part of the orbit path shows where the satellite is in the earth's shadow,  

DLR